Weather Roundup
Issued by NWS Springfield, MO

Home | Current Version | Previous Version | Text Only | Print | Product List | Glossary On
Versions: 1 2 3 4 5 6 7 8 9 10 11 12 13 14 15 16 17 18 19 20 21 22 23 24 25 26 27 28 29 30 31 32 33 34 35 36 37 38 39 40 41 42 43 44 45 46 47 48 49 50
000
NZUS99 KSGF 091007
HRRSGF

HOURLY WEATHER
NATIONAL WEATHER SERVICE SPRINGFIELD MO
400 AM CST FRI DEC 09 2016

......SGF CWA......

CITY           SKY/WX    TMP DP  RH WIND       PRES   REMARKS
SPRINGFIELD    CLEAR     16  10  77 CALM      30.62R
JOPLIN         CLEAR     13  10  88 CALM      30.66F
WEST PLAINS    CLEAR     15  10  80 W5        30.60S WCI   8
ROLLA          CLEAR     14  10  84 W8        30.58S WCI   3
OSAGE BEACH    CLEAR     16  10  77 W3        30.65R
BRANSON        CLEAR     16  10  79 CALM      30.62F

......SURROUNDING SGF CWA......

CITY           SKY/WX    TMP DP  RH WIND       PRES   REMARKS
CHANUTE        CLEAR     14   9  80 CALM      30.66F
PARSONS        CLEAR     11   8  88 CALM      30.68F
COFFEYVILLE    CLEAR     14  11  87 CALM      30.69S
EMPORIA        CLEAR     11   8  88 CALM      30.64S
GROVE OK       CLOUDY    16  14  93 CALM      30.68F
ROGERS AR      CLOUDY    14  11  87 CALM      30.62F
SILOAM SPRINGS CLOUDY    16  10  79 CALM      30.63S
HARRISON AR    CLEAR     16  12  84 NW3       30.61S
NEAR YELLVILLE CLEAR     19  10  68 W3        30.62S

......KANSAS AND MISSOURI......

CITY           SKY/WX    TMP DP  RH WIND       PRES   REMARKS
KANSAS CTY INT CLEAR     13   6  74 NW6       30.65R WCI   4
DOWNTOWN KC    CLEAR     17  10  74 NW6       30.68R WCI   9
COLUMBIA       CLEAR     15   9  76 W7        30.62R WCI   5
SEDALIA        CLEAR     15   9  76 NW6       30.65S WCI   6
ST JOSEPH      CLEAR     14   8  77 W3        30.67S
ST LOUIS       CLEAR     19  10  68 W7        30.60S WCI  10
SPIRIT OF STL  PTCLDY    18  11  74 W3        30.62S
KIRKSVILLE     CLEAR     11   7  84 NW5       30.61R WCI   3
WICHITA        CLOUDY    13   8  81 CALM      30.64S
TOPEKA         CLEAR     10   6  84 CALM      30.67F
OLATHE         CLEAR     13   7  77 NW6       30.65R WCI   4

......TENNESSEE......

CITY           SKY/WX    TMP DP  RH WIND       PRES   REMARKS
MEMPHIS        CLEAR     26  17  68 N8        30.62R WCI  18
NASHVILLE      CLOUDY    25  15  66 NW7       30.55S WCI  17

......ARKANSAS.......

CITY           SKY/WX    TMP DP  RH WIND       PRES   REMARKS
FAYETTEVILLE   CLOUDY    12  11  95 CALM      30.63S
FT SMITH       CLEAR     21  14  74 NW3       30.68S
LITTLE ROCK    CLEAR     24  16  71 N9        30.67S WCI  14

......OKLAHOMA.......

CITY           SKY/WX    TMP DP  RH WIND       PRES   REMARKS
TULSA          CLOUDY    18  13  80 CALM      30.69S
PONCA CITY     CLOUDY    12   7  80 CALM      30.66F
MCALESTER      CLOUDY    19  13  77 CALM      30.68S
OKLAHOMA CITY  PTCLDY    21  10  62 E7        30.63F WCI  12

......IOWA............

CITY           SKY/WX    TMP DP  RH WIND       PRES   REMARKS
DES MOINES     CLEAR     13   6  74 NW12      30.60F WCI  -1
QUAD CITIES    CLOUDY    20  11  68 NW12      30.55S WCI   8

......ILLINOIS........

CITY           SKY/WX    TMP DP  RH WIND       PRES   REMARKS
QUINCY         PTCLDY    15  10  80 NW7       30.57F WCI   5
CHICAGO        CLOUDY    21  16  81 W8        30.45R WCI  11




USA.gov is the U.S. government's official web portal to all federal, state and local government web resources and services.